Location: Street
(51.1247°N, 2.7429°W)
Time: 22:10:11
(UTC+00:00)

deb Explorer IX - Visible Passes

Search period start: 25 November 2020 00:00
Search period end: 05 December 2020 00:00
Orbit: 538 x 1104 km, 38.8° (Epoch: 25 November)

Date Brightness Start Highest point End Pass type
(mag) Time Alt. Az. Time Alt. Az. Time Alt. Az.
25 Nov ? 18:04:12 10° S 18:06:15 12° SSE 18:08:07 10° SE visible
25 Nov ? 19:48:51 10° SW 19:49:24 12° SW 19:49:24 12° SW visible
26 Nov ? 17:40:33 10° S 17:42:58 13° SSE 17:45:16 10° SE visible
26 Nov ? 19:25:23 10° SW 19:27:25 16° SSW 19:27:25 16° SSW visible
27 Nov ? 17:16:55 10° SSW 17:19:41 14° SSE 17:22:17 10° SE visible
27 Nov ? 19:01:54 10° SW 19:05:25 19° S 19:05:25 19° S visible
28 Nov ? 16:53:17 10° SSW 16:56:23 15° SSE 16:59:16 10° SE visible
28 Nov ? 18:38:24 10° SW 18:42:18 20° S 18:43:25 19° SSE visible
29 Nov ? 18:14:53 10° SW 18:19:00 21° S 18:21:25 15° SE visible
29 Nov ? 20:01:46 10° SW 20:02:42 13° SW 20:02:42 13° SW visible
30 Nov ? 17:51:19 10° SW 17:55:42 22° S 17:59:26 11° SE visible
30 Nov ? 19:38:15 10° SW 19:40:44 16° SSW 19:40:44 16° SSW visible
01 Dec ? 17:27:46 10° SW 17:32:22 23° S 17:36:29 10° SE visible
01 Dec ? 19:14:44 10° WSW 19:18:14 17° SSW 19:18:47 17° S visible
02 Dec ? 17:04:12 10° SW 17:09:02 24° S 17:13:20 10° SE visible
02 Dec ? 18:51:10 10° WSW 18:54:56 18° SSW 18:56:54 15° S visible
03 Dec ? 16:40:38 10° SW 16:45:40 25° S 16:50:09 10° SE visible
03 Dec ? 18:27:36 10° WSW 18:31:36 19° SSW 18:35:04 11° SSE visible
04 Dec ? 18:04:01 10° WSW 18:08:15 20° SSW 18:12:05 10° SSE visible
